EA7RX-13 Weather Reports


time (UTC)temp
C
wind
direction
speed
KPH
gust
KPH
rain 1hr
cm
rain 24hr
cm
rain mn
cm
humidity
%
barometer
mb
20260508105351 23 0.0 0.0 0.00 0.00 0.00 57 1010.2
20260508104351 22 0.0 0.0 0.00 0.00 0.00 62 1010.2
20260508103351 22 0.0 0.0 0.00 0.00 0.00 71 1010.5
20260508102351 21 0.0 0.0 0.00 0.00 0.00 76 1010.7
20260508101351 20 0.0 0.0 0.00 0.00 0.00 76 1010.7
20260508100351 20 0.0 0.0 0.00 0.00 0.00 82 1010.8
20260508095351 20 0.0 0.0 0.00 0.00 0.00 78 1010.6
20260508094351 20 0.0 0.0 0.00 0.00 0.00 77 1010.6
20260508093351 20 0.0 0.0 0.00 0.00 0.00 78 1010.5
20260508092351 20 0.0 0.0 0.00 0.00 0.00 74 1010.5
20260508091351 21 0.0 0.0 0.00 0.00 0.00 67 1010.2
20260508090351 21 0.0 0.0 0.00 0.00 0.00 66 1010.0
20260508085351 21 0.0 0.0 0.00 0.00 0.00 69 1010.0
20260508084351 20 0.0 0.0 0.00 0.00 0.00 69 1010.0
20260508083351 20 0.0 0.0 0.00 0.00 0.00 75 1010.0
20260508082351 19 0.0 0.0 0.00 0.00 0.00 78 1010.2
20260508081351 18 0.0 0.0 0.00 0.00 0.00 92 1010.4
20260508080351 18 0.0 0.0 0.00 0.00 0.00 10 1010.4
20260508075351 17 0.0 0.0 0.00 0.00 0.00 10 1010.5
20260508074351 17 0.0 0.0 0.00 0.00 0.00 10 1010.8
20260508073351 17 0.0 0.0 0.00 0.00 0.00 10 1010.9
20260508072351 16 0.0 0.0 0.00 0.00 0.00 10 1011.1
20260508071351 15 0.0 0.0 0.00 0.00 0.00 10 1011.2
20260508070351 15 0.0 0.0 0.00 0.00 0.00 10 1011.3
20260508065351 15 0.0 0.0 0.00 0.00 0.00 10 1011.1
20260508064351 15 0.0 0.0 0.00 0.00 0.00 10 1010.8
20260508063351 15 0.0 0.0 0.00 0.00 0.00 10 1010.7
20260508062351 15 0.0 0.0 0.00 0.00 0.00 10 1010.4
20260508061351 15 0.0 0.0 0.00 0.00 0.00 10 1010.5
20260508060351 15 0.0 0.0 0.00 0.00 0.00 10 1010.9
20260508055351 14 0.0 0.0 0.00 0.00 0.00 10 1010.9
20260508054352 14 0.0 0.0 0.00 0.00 0.00 10 1010.9
20260508053351 14 0.0 0.0 0.00 0.00 0.00 10 1010.9
20260508052351 14 0.0 0.0 0.00 0.00 0.00 10 1011.0
20260508051351 14 0.0 0.0 0.00 0.00 0.00 10 1010.9
20260508050351 14 0.0 0.0 0.00 0.00 0.00 10 1010.7
20260508045351 14 0.0 0.0 0.00 0.00 0.00 10 1010.7
20260508044351 14 0.0 0.0 0.00 0.00 0.00 10 1010.6
20260508043351 14 0.0 0.0 0.00 0.00 0.00 10 1010.9
20260508042351 14 0.0 0.0 0.00 0.00 0.00 10 1010.6
20260508041351 14 0.0 0.0 0.00 0.00 0.00 10 1010.6
20260508040351 14 0.0 0.0 0.00 0.00 0.00 10 1010.7
20260508035351 14 0.0 0.0 0.00 0.00 0.00 10 1010.8
20260508034351 14 0.0 0.0 0.00 0.00 0.00 10 1010.6
20260508033351 14 0.0 0.0 0.00 0.00 0.00 10 1010.5
20260508032351 15 0.0 0.0 0.00 0.00 0.00 10 1010.5
20260508031351 15 0.0 0.0 0.00 0.00 0.00 10 1010.4
20260508030351 15 0.0 0.0 0.00 0.00 0.00 10 1010.4
20260508025351 14 0.0 0.0 0.00 0.00 0.00 10 1010.6
20260508024351 14 0.0 0.0 0.00 0.00 0.00 10 1010.3
20260508023351 14 0.0 0.0 0.00 0.00 0.00 10 1010.2
20260508022351 15 0.0 0.0 0.00 0.00 0.00 10 1010.2
20260508021351 15 0.0 0.0 0.00 0.00 0.00 10 1010.1
20260508020351 15 0.0 0.0 0.00 0.00 0.00 10 1009.9
20260508015351 15 0.0 0.0 0.00 0.00 0.00 10 1009.7
20260508014351 15 0.0 0.0 0.00 0.00 0.00 10 1009.7
20260508013351 16 0.0 0.0 0.00 0.00 0.00 10 1009.5
20260508012351 16 0.0 0.0 0.00 0.00 0.00 10 1009.6
20260508011351 16 0.0 0.0 0.00 0.00 0.00 10 1010.2
20260508010351 16 0.0 0.0 0.00 0.00 0.00 10 1010.3
20260508005351 16 0.0 0.0 0.00 0.00 0.00 10 1010.5
20260508004351 16 0.0 0.0 0.00 0.00 0.00 10 1010.7
20260508003351 16 0.0 0.0 0.00 0.00 0.00 10 1010.9
20260508002351 16 0.0 0.0 0.00 0.00 0.00 10 1011.1
20260508001351 16 0.0 0.0 0.00 0.00 0.00 10 1011.1
20260508000351 16 0.0 0.0 0.00 0.00 0.00 10 1011.0
20260507235351 17 0.0 0.0 0.00 0.00 0.00 10 1010.9
20260507234351 17 0.0 0.0 0.00 0.00 0.00 10 1011.0
20260507233351 17 0.0 0.0 0.00 0.00 0.00 10 1010.8
20260507232351 17 0.0 0.0 0.00 0.00 0.00 10 1010.8
20260507231351 17 0.0 0.0 0.00 0.00 0.00 10 1010.8
20260507230351 17 0.0 0.0 0.00 0.00 0.00 10 1010.8
20260507225351 17 0.0 0.0 0.00 0.00 0.00 10 1010.8
20260507224351 17 0.0 0.0 0.00 0.00 0.00 10 1010.9
20260507223351 17 0.0 0.0 0.00 0.00 0.00 10 1011.1
20260507222351 17 0.0 0.0 0.00 0.00 0.00 10 1011.1
20260507221351 18 0.0 0.0 0.00 0.00 0.00 10 1011.1
20260507220351 18 0.0 0.0 0.00 0.00 0.00 10 1011.2
20260507215351 18 0.0 0.0 0.00 0.00 0.00 97 1011.2
20260507214351 17 0.0 0.0 0.00 0.00 0.00 10 1011.4
20260507213351 18 0.0 0.0 0.00 0.00 0.00 10 1011.2
20260507212351 18 0.0 0.0 0.00 0.00 0.00 10 1011.2
20260507211351 18 0.0 0.0 0.00 0.00 0.00 10 1011.1
20260507210351 18 0.0 0.0 0.00 0.00 0.00 10 1010.9
20260507205351 18 0.0 0.0 0.00 0.00 0.00 10 1010.8
20260507204351 18 0.0 0.0 0.00 0.00 0.00 98 1010.6
20260507203351 18 0.0 0.0 0.00 0.00 0.00 10 1010.4
20260507202351 18 0.0 0.0 0.00 0.00 0.00 10 1010.1
20260507201351 18 0.0 0.0 0.00 0.00 0.00 10 1010.0
20260507200351 18 0.0 0.0 0.00 0.00 0.00 10 1009.8
20260507195351 18 0.0 0.0 0.00 0.00 0.00 10 1009.7
20260507194351 17 0.0 0.0 0.00 0.00 0.00 10 1009.6
20260507193351 17 0.0 0.0 0.00 0.00 0.00 10 1009.4
20260507192351 17 0.0 0.0 0.00 0.00 0.00 10 1009.3
20260507191351 17 0.0 0.0 0.00 0.00 0.00 10 1009.1
20260507190351 18 0.0 0.0 0.00 0.00 0.00 10 1009.0
20260507185351 18 0.0 0.0 0.00 0.00 0.00 10 1009.0
20260507184351 18 0.0 0.0 0.00 0.00 0.00 99 1008.7
20260507183351 18 0.0 0.0 0.00 0.00 0.00 70 1008.6
20260507182351 19 0.0 0.0 0.00 0.00 0.00 87 1008.3
20260507181351 20 0.0 0.0 0.00 0.00 0.00 60 1008.2
20260507180351 19 0.0 0.0 0.00 0.00 0.00 62 1008.1
20260507175351 19 0.0 0.0 0.00 0.00 0.00 63 1008.0
20260507174351 20 0.0 0.0 0.00 0.00 0.00 59 1007.8
20260507173351 20 0.0 0.0 0.00 0.00 0.00 60 1007.8
20260507172351 20 0.0 0.0 0.00 0.00 0.00 58 1007.8
20260507171351 20 0.0 0.0 0.00 0.00 0.00 57 1007.7
20260507170351 20 0.0 0.0 0.00 0.00 0.00 56 1007.7
20260507165351 20 0.0 0.0 0.00 0.00 0.00 59 1007.4
20260507164351 21 0.0 0.0 0.00 0.00 0.00 85 1007.3
20260507163351 21 0.0 0.0 0.00 0.00 0.00 72 1006.9
20260507162351 22 0.0 0.0 0.00 0.00 0.00 70 1006.8
20260507161351 22 0.0 0.0 0.00 0.00 0.00 54 1006.7
20260507160351 24 0.0 0.0 0.00 0.00 0.00 50 1006.4
20260507155351 23 0.0 0.0 0.00 0.00 0.00 50 1006.5
20260507154351 22 0.0 0.0 0.00 0.00 0.00 59 1006.8
20260507153351 23 0.0 0.0 0.00 0.00 0.00 59 1006.7
20260507152351 21 0.0 0.0 0.00 0.00 0.00 10 1007.0
20260507151351 22 0.0 0.0 0.00 0.00 0.00 63 1007.0
20260507150351 24 0.0 0.0 0.00 0.00 0.00 61 1006.8
20260507145351 25 0.0 0.0 0.00 0.00 0.00 60 1006.8
20260507144351 25 0.0 0.0 0.00 0.00 0.00 57 1007.0
20260507143351 23 0.0 0.0 0.00 0.00 0.00 70 1007.3
20260507142351 23 0.0 0.0 0.00 0.00 0.00 10 1007.7
20260507141351 22 0.0 0.0 0.00 0.00 0.00 10 1007.8
20260507140351 22 0.0 0.0 0.00 0.00 0.00 10 1008.0
20260507135351 20 0.0 0.0 0.00 0.00 0.00 10 1008.2
20260507134351 17 0.0 0.0 0.00 0.00 0.00 10 1009.1
20260507133351 18 0.0 0.0 0.00 0.00 0.00 10 1008.8
20260507132351 20 0.0 0.0 0.00 0.00 0.00 73 1008.7
20260507131351 22 0.0 0.0 0.00 0.00 0.00 50 1007.9
20260507130351 23 0.0 0.0 0.00 0.00 0.00 45 1007.7
20260507125351 25 0.0 0.0 0.00 0.00 0.00 44 1007.2
20260507124351 25 0.0 0.0 0.00 0.00 0.00 42 1007.3
20260507123351 26 0.0 0.0 0.00 0.00 0.00 41 1007.3
20260507122351 23 0.0 0.0 0.00 0.00 0.00 45 1007.9
20260507121351 23 0.0 0.0 0.00 0.00 0.00 45 1008.0
20260507120351 26 0.0 0.0 0.00 0.00 0.00 43 1007.7
20260507115351 26 0.0 0.0 0.00 0.00 0.00 42 1007.9
20260507114351 25 0.0 0.0 0.00 0.00 0.00 44 1008.2
20260507113351 25 0.0 0.0 0.00 0.00 0.00 45 1008.3
20260507112351 25 0.0 0.0 0.00 0.00 0.00 43 1008.5
20260507111351 25 0.0 0.0 0.00 0.00 0.00 45 1008.5
20260507110351 25 0.0 0.0 0.00 0.00 0.00 43 1008.8